Other Public Products
Issued by NWS Grand Forks, ND

Home | Current Version | Previous Version | Text Only | Print | Product List | Glossary Off
Versions: 1 2 3 4 5 6 7 8 9 10 11 12 13 14 15 16 17 18 19 20 21 22 23 24 25 26 27 28 29 30 31 32 33 34 35 36 37 38 39 40 41 42 43 44 45 46 47 48 49 50

000
FPUS83 KFGF 291410
OPUFGF
PRAIRIE TO PINES WEATHER ROUNDUP
NATIONAL WEATHER SERVICE EASTERN NORTH DAKOTA/GRAND FORKS ND
900 AM CDT THU SEP 29 2016

 **SATELLITE DATA USED TO AUGMENT SKY COVER AT AUTOMATED STATIONS**
 *****  WEATHER ACROSS EASTERN NORTH DAKOTA  *****

CITY           SKY/WX    TMP DP  RH WIND       PRES   REMARKS
GRAND FORKS    CLOUDY    51  47  86 SE8       30.47R
GRAND FORKS AF PTSUNNY   48  48  99 S6        30.47S
GRAND CITY NWS   N/A     50 N/A N/A SE7         N/A
BUXTON         NOT AVBL
DEVILS LAKE    SUNNY     50  47  89 SE9       30.44S
FARGO          CLOUDY    55  47  74 SE5       30.49R
WAHPETON ARPT  MOSUNNY   50  45  81 CALM      30.49S
$$

 *****  WEATHER ACROSS CENTRAL AND WESTERN NORTH DAKOTA  *****

CITY           SKY/WX    TMP DP  RH WIND       PRES   REMARKS
JAMESTOWN      SUNNY     45  45 100 SE8       30.44S
BISMARCK       SUNNY     44  42  93 E7        30.40S
MINOT          SUNNY     48  45  89 SE8       30.34F
MINOT AFB      SUNNY     47  44  90 S13       30.33F
GARRISON         N/A     48  47  96 SE9       30.35F
WILLISTON      SUNNY     54  43  66 SE6       30.26R
DICKINSON      SUNNY     46  42  86 SE13      30.29R
HETTINGER      SUNNY     44  40  85 E6        30.33S
$$

 *****  OTHER OBSERVATIONS NORTHEAST NORTH DAKOTA  *****

CITY           SKY/WX    TMP DP  RH WIND       PRES   REMARKS
WALHALLA       FAIR      45  45 100 S3        30.46S
LANGDON        FAIR      48  48 100 SE9       30.45S
CAVALIER       FAIR      46  46 100 S5        30.46S
GRAFTON        FAIR      48  48 100 SE5       30.49R
CANDO          FAIR      46  46 100 SE7       30.45S
FORT TOTTEN      N/A     48  48  99 SE7       29.95S
ROLLA          FAIR      46  46 100 S10       30.42R
RUGBY          FAIR      48  46  93 SE10      30.40S
 ***** THE ABOVE OBSERVATIONS ARE NON NWS ARE NOT QUALITY
        CONTROLLED AND MAY MIS-REPORT RAIN FOR SNOW...
$$

 *****  OTHER OBSERVATIONS SOUTHEAST NORTH DAKOTA *****

CITY           SKY/WX    TMP DP  RH WIND       PRES   REMARKS
COOPERSTOWN    FAIR      46  46 100 SE7       30.46S
VALLEY CITY    FAIR      46  46 100 S5        30.48S
OAKES          NOT AVBL
GWINNER        FAIR      46  46 100 SE3       30.48R
BUFFALO        NOT AVBL
WYNDMERE       NOT AVBL
 ***** THE ABOVE OBSERVATIONS ARE NON NWS ARE NOT QUALITY
       CONTROLLED AND MAY MIS-REPORT RAIN FOR SNOW...
$$

  *****  WEATHER ACROSS NORTHERN MINNESOTA  *****

CITY           SKY/WX    TMP DP  RH WIND       PRES   REMARKS
FLAG ISLAND    CLOUDY    55  45  67 SE6       30.49S
WARROAD        CLOUDY    54  48  82 CALM      30.51R
ROSEAU         CLOUDY    54  48  82 CALM      30.50R
HALLOCK        PTSUNNY   52  48  87 SE7       30.47S
THF RVR FALLS  CLOUDY    53  48  83 SE6       30.50R
HALSTAD          N/A     53  48  85 S3          N/A
FOSSTON        PTSUNNY   46  45  93 CALM      30.51R
BAUDETTE       CLOUDY    52  49  89 CALM      30.51S
WASKISH        CLOUDY    52  50  93 CALM      30.51S
CROOKSTON      CLOUDY    54  48  82 SE5       30.49S
$$
  *****  WEATHER ACROSS CENTRAL AND WEST MINNESOTA  *****

CITY           SKY/WX    TMP DP  RH WIND       PRES   REMARKS
BEMIDJI        CLOUDY    51  49  93 CALM      30.50S
PARK RAPIDS    CLOUDY    54  48  80 CALM      30.49S
WADENA         CLOUDY    52  46  82 CALM      30.49R
DETROIT LAKES  CLOUDY    48  46  93 CALM      30.51R
MOORHEAD       MOSUNNY   50  46  87 CALM      30.50R
FERGUS FALLS   CLOUDY    52  46  82 CALM      30.51S
ELBOW LAKE     CLOUDY    52  48  86 CALM      30.49S
MORRIS MN      SUNNY     54  48  82 CALM      30.48R
STAPLES        CLOUDY    52  48  87 CALM      30.50R
WHEATON        NOT AVBL
$$
  *****  WEATHER ELSEWHERE ACROSS MINNESOTA  *****

CITY           SKY/WX    TMP DP  RH WIND       PRES   REMARKS
DULUTH         CLOUDY    54  51  90 E8        30.50R
INTRNTL FALLS  CLOUDY    53  49  86 CALM      30.52R
ELY            CLOUDY    52  48  87 CALM      30.52R
CLOQUET        CLOUDY    54  50  87 E8        30.50R
BRAINERD       CLOUDY    53  51  93 CALM      30.50R
HIBBING        CLOUDY    52  50  93 NE3       30.51R
ALEXANDRIA     CLOUDY    53  49  86 CALM      30.50R
SAINT CLOUD    SUNNY     53  50  89 NE5       30.49R
MINNEAPOLIS    MOSUNNY   52  48  86 E5        30.47R
$$

  *****  WEATHER ACROSS SOUTH DAKOTA  *****

CITY           SKY/WX    TMP DP  RH WIND       PRES   REMARKS
SIOUX FALLS    SUNNY     49  46  90 N3        30.47R
BROOKINGS      SUNNY     44  43  96 CALM      30.47S
WATERTOWN      SUNNY     46  43  89 CALM      30.47R
HURON          SUNNY     47  45  93 SE5       30.46R
SISSETON         N/A     46  43  89 CALM      30.48R
ABERDEEN       MOSUNNY   42  41  96 CALM      30.47R
MITCHELL       MOSUNNY   43  43 100 CALM      30.48R
PIERRE         SUNNY     47  45  93 SE8       30.39S
MOBRIDGE       SUNNY     51  45  79 SE8       30.38S
RAPID CITY     SUNNY     45  37  73 SE6       30.31S
$$

  *****  SOME WEATHER IN NEARBY STATES *****

CITY           SKY/WX    TMP DP  RH WIND       PRES   REMARKS
GLASGOW MT     CLEAR     55  44  66 SE13      30.13R
GREAT FALLS MT CLEAR     44  42  93 CALM      30.10R
CHEYENNE WY    CLOUDY    46  38  73 W6        30.38S
SCOTTSBLUFF NE CLOUDY    48  38  68 E13       30.35R
OMAHA NE       MOSUNNY   50  45  83 N9        30.44R
DES MOINES IA  MOSUNNY   56  51  84 N10       30.38R
DAVENPORT IA   PTSUNNY   54  51  90 N16G26    30.27S
CHICAGO IL     CLOUDY    63  57  81 N18G26    30.15R
EAU CLAIRE WI  MOSUNNY   53  49  86 NE9       30.44R
LA CROSSE WI   MOSUNNY   55  51  86 N8        30.40R
$$

  *****  SOME NATIONAL WEATHER *****

CITY           SKY/WX    TMP DP  RH WIND       PRES   REMARKS
LA GUARDIA NY  CLOUDY    63  54  72 NE17      30.35R
RALEIGH NC     PTSUNNY   68  66  93 NE3       30.04R
ATLANTA GA     SUNNY     66  54  65 NW9       30.00R
NEW ORLEANS LA MOSUNNY   80  71  74 W3        30.05S
OKLAHOMA CITY  MOSUNNY   57  49  74 NE10      30.36R
ALBUQUERQUE NM PTSUNNY   66  40  38 E13       30.39R
SALT LAKE CITY MOCLDY    62  50  64 SE10      30.21R
LOS ANGELES CA PTCLDY    72  61  68 VRB3      30.00R
BOISE ID       PTCLDY    63  40  42 NW8       29.97R
SEATTLE WA     PTCLDY    48  42  80 N6        30.06S
$$

*** WEATHER ACROSS MANITOBA...SASKATCHEWAN AND ONTARIO ***
                ***ONTARIO***

CITY           SKY/WX    TMP DP  RH WIND       PRES   REMARKS
GERALDTON      CLOUDY    52  50  93 NE3       30.54R
THUNDER BAY    PTSUNNY   54  50  87 VRB2      30.52R
SIOUX LOOKOUT  CLOUDY    54  45  71 SE2       30.53R
TORONTO        LGT RAIN  57  54  88 NE10G17   30.30R
BIG TROUT LK   PTSUNNY   48  46  93 W3        30.50R
PICKLE LAKE    CLOUDY    52  50  93 CALM      30.51S
DRYDEN         CLOUDY    52  46  82 SE3       30.52R
KENORA         CLOUDY    52  48  87 SE6       30.51R
$$
                *** MANITOBA***

CITY           SKY/WX    TMP DP  RH WIND       PRES   REMARKS
BRANDON        MOSUNNY   46  45  93 SE6       30.40S
DAUPHIN        PTSUNNY   46  45  93 NW5       30.37S
ISLAND LAKE    PTSUNNY   50  48  93 S5        30.45S
PILOT MOUND      N/A     48  45  87 S12         N/A
THE PAS        LGT RAIN  50  45  81 S9        30.37F
THOMPSON       PTSUNNY   36  36 100 CALM      30.42S
WINNIPEG       MOSUNNY   52  48  87 S6        30.46S
LYNN LAKE      CLOUDY    37  34  87 S5        30.34S
CHURCHILL      MOSUNNY   43  34  70 W9        30.35R
GILLAM         MOSUNNY   41  36  81 SW3       30.43F
$$
                ***SASKATCHEWAN***

CITY           SKY/WX    TMP DP  RH WIND       PRES   REMARKS
ESTEVAN        MOSUNNY   46  45  93 E12       30.27S
KINDERSLEY     PTCLDY    41  41 100 NE6       30.15R
LLOYDMINSTER   MOCLDY    41  39  93 NE5       30.21F
PRINCE ALBERT  PTCLDY    48  45  87 E9        30.23F
REGINA         PTCLDY    50  43  76 SE14      30.20F
YORKTON        SUNNY     50  45  81 SE15G21   30.27F
N. BATTLEFORD  MOCLDY    41  41 100 NE6       30.21F   C1F1C2F2C3F3C4F4C5F5C6F6C7F7C8F8C9F9CaFaCbFbCcFcCdFdCe!



USA.gov is the U.S. government's official web portal to all federal, state and local government web resources and services.